map of LMP home
Great Circle Mapper logo
LMP - Airport
Location
City:  Lampedusa, Sicily, Italy
ICAO:LICD
IATA:LMP

Details
Type:Airport (Aerodrome, Airfield)
Latitude:3529'52"N (35.497914)
Longitude:1237'05"E (12.618083)
Datum:WGS 1984
Elevation:70 ft (21 m)
Variation:2.57E (WMM2015 magnetic declination)
0.09 annual change
Runways:1
Longest:5906 × 148 ft (1800 × 45 m), paved

Time
Time Zone:UTC+1 (DST+2)
Local Time:

Weather
METAR:LICD 310650Z 36007KT 300V020 9999 FEW045 20/16 Q1016
TAF:LICD 310500Z 3106/0106 35018KT 9999 SCT030
TEMPO 0103/0106 SHRA

Related Locations
Nearby:
Farthest:CHT: 11685 mi / 18806 km
Waitangi [Tuuta], Chatham Islands, NZ

Find:

   beyond  
but within

Other Information
Maps:
NOTAMs:
Links:
Sources:

  
flag of Italy
flag of Sicily
  

Sectional Chart

Flight Planning
at skyvector.com

Satellite Image

Google Maps Satellite view

 

Copyright © 2004-2016 Karl L. Swartz. All rights reserved.
The Great Circle Mapper name and logo are trademarks of the Great Circle Mapper.
All other trademarks mentioned herein belong to their respective owners.
Please see credits for attibutions and further copyright information.

  Follow gcmap on Facebook Follow gcmap on Twitter Follow gcmap on Google+ GCmap on LinkedIn

hCard Microformat

Geo Microformat